contact:dominique.lefevre@mio.osupytheas.fr, maurice.libes@osupytheas.fr, didier.mallarino@osupytheas.fr
Project:EMSO http://www.emso-fr.org/EMSO-France
Depth: 2436.0 m
Title:EMSO Ligure Ouest : Data MII capteur AQUADOPP
Date,Latitude,Longitude,X_East,Y_North,Z_Up,Amplitude_X,Amplitude_Y,Amplitude_Z,Batterie,SoundSpeed,Heading,Pitch,Roll,Pressure,TIS,Speed,Direction
, degrees North, degrees East, m.s-1, m.s-1,m.s-1, 1, 1, 1, Volt, m.s-1, degree, degree, degree, dbar, degree_C, m.s-1, degree
2024-03-29T00:04:03,42.805,6.029,0.011,-0.021,0.011,107.0,107.0,104.0,13.3,1505.2,6.6,-0.8,1.8,2471.737,13.28,0.023,152.4
2024-03-29T00:07:03,42.805,6.029,0.04,-0.036,0.01,109.0,108.0,104.0,13.4,1505.2,1.6,-0.7,1.8,2471.705,13.29,0.053,132.0
2024-03-29T00:10:03,42.805,6.029,0.018,-0.044,-0.014,108.0,108.0,104.0,13.3,1505.2,352.5,-0.8,1.8,2471.745,13.29,0.047,157.8
2024-03-29T00:13:03,42.805,6.029,0.033,-0.035,0.009,109.0,108.0,105.0,13.4,1505.2,354.4,-0.8,1.8,2471.71,13.29,0.048,136.7
2024-03-29T00:16:03,42.805,6.029,0.031,-0.046,0.002,109.0,108.0,105.0,13.4,1505.2,1.7,-0.7,1.8,2471.712,13.29,0.055,146.0
2024-03-29T00:19:03,42.805,6.029,0.039,-0.021,0.014,109.0,107.0,104.0,13.4,1505.2,357.0,-0.8,1.8,2471.68,13.29,0.044,118.3
2024-03-29T00:22:03,42.805,6.029,0.02,-0.033,0.001,107.0,107.0,103.0,13.3,1505.2,5.0,-0.8,1.8,2471.693,13.29,0.038,148.8
2024-03-29T00:25:03,42.805,6.029,0.009,-0.038,0.013,108.0,107.0,105.0,13.4,1505.2,9.6,-0.8,1.9,2471.722,13.29,0.039,166.7
2024-03-29T00:28:03,42.805,6.029,0.01,-0.026,0.011,109.0,108.0,105.0,13.3,1505.2,7.3,-0.7,1.8,2471.694,13.29,0.027,159.0
2024-03-29T00:31:03,42.805,6.029,0.039,-0.036,0.014,109.0,108.0,104.0,13.4,1505.2,355.8,-0.8,1.8,2471.671,13.29,0.053,132.7
2024-03-29T00:34:03,42.805,6.029,0.036,-0.048,0.01,108.0,107.0,105.0,13.4,1505.2,357.0,-0.8,1.8,2471.696,13.29,0.06,143.1
2024-03-29T00:37:03,42.805,6.029,0.048,-0.035,0.006,108.0,108.0,106.0,13.3,1505.2,359.4,-0.8,1.8,2471.676,13.29,0.059,126.1
2024-03-29T00:40:03,42.805,6.029,0.029,-0.041,0.001,108.0,109.0,105.0,13.3,1505.2,3.4,-0.8,1.8,2471.669,13.29,0.05,144.7
2024-03-29T00:43:03,42.805,6.029,0.028,-0.022,0.01,107.0,108.0,105.0,13.4,1505.2,354.5,-0.8,1.8,2471.718,13.29,0.035,128.2
2024-03-29T00:46:03,42.805,6.029,0.028,-0.028,-0.004,108.0,109.0,105.0,13.4,1505.2,1.8,-0.8,1.8,2471.644,13.29,0.039,135.0
2024-03-29T00:49:03,42.805,6.029,0.012,-0.034,0.024,108.0,108.0,105.0,13.4,1505.2,0.5,-0.8,1.8,2471.688,13.29,0.036,160.6
2024-03-29T00:52:03,42.805,6.029,0.036,-0.042,0.016,109.0,107.0,104.0,13.3,1505.2,6.0,-0.7,1.8,2471.695,13.29,0.055,139.4
2024-03-29T00:55:03,42.805,6.029,0.031,-0.046,0.004,108.0,109.0,105.0,13.4,1505.2,4.2,-0.8,1.8,2471.694,13.29,0.055,146.0
2024-03-29T00:58:03,42.805,6.029,0.023,-0.036,0.007,108.0,108.0,104.0,13.3,1505.2,0.5,-0.7,1.8,2471.673,13.29,0.042,147.4
2024-03-29T01:04:03,42.805,6.029,0.015,-0.047,-0.017,108.0,107.0,106.0,13.3,1505.2,9.3,-0.8,1.8,2471.704,13.28,0.049,162.3
2024-03-29T01:07:03,42.805,6.029,0.051,-0.029,0.028,109.0,108.0,105.0,13.3,1505.2,359.4,-0.8,1.8,2471.698,13.29,0.058,119.6
2024-03-29T01:10:03,42.805,6.029,0.021,-0.045,-0.015,108.0,108.0,106.0,13.4,1505.2,357.7,-0.8,1.8,2471.693,13.29,0.049,155.0
2024-03-29T01:13:03,42.805,6.029,0.056,-0.041,0.011,109.0,109.0,105.0,13.4,1505.2,6.5,-0.8,1.8,2471.696,13.29,0.069,126.2
2024-03-29T01:16:03,42.805,6.029,0.052,-0.043,0.005,109.0,107.0,105.0,13.3,1505.2,1.6,-0.7,1.8,2471.646,13.29,0.067,129.6
2024-03-29T01:19:03,42.805,6.029,0.034,-0.035,0.029,107.0,108.0,105.0,13.4,1505.2,352.2,-0.7,1.8,2471.671,13.29,0.048,135.8
2024-03-29T01:22:03,42.805,6.029,0.027,-0.028,0.033,109.0,106.0,106.0,13.3,1505.2,1.1,-0.8,1.8,2471.655,13.29,0.038,136.0
2024-03-29T01:25:03,42.805,6.029,0.034,-0.03,0.016,109.0,108.0,104.0,13.3,1505.2,3.6,-0.8,1.8,2471.648,13.29,0.045,131.4
2024-03-29T01:28:03,42.805,6.029,0.033,-0.04,0.008,108.0,107.0,105.0,13.3,1505.2,2.4,-0.7,1.8,2471.649,13.29,0.051,140.5
2024-03-29T01:31:03,42.805,6.029,0.037,-0.042,-0.01,108.0,107.0,105.0,13.4,1505.2,357.7,-0.8,1.8,2471.672,13.29,0.055,138.6
2024-03-29T01:34:03,42.805,6.029,0.03,-0.028,0.011,107.0,107.0,105.0,13.4,1505.2,359.3,-0.7,1.8,2471.71,13.29,0.041,133.0
2024-03-29T01:37:03,42.805,6.029,0.04,-0.038,0.034,108.0,107.0,104.0,13.4,1505.2,4.5,-0.7,1.8,2471.678,13.29,0.055,133.5
2024-03-29T01:40:03,42.805,6.029,0.032,-0.026,0.025,108.0,108.0,105.0,13.3,1505.2,355.0,-0.7,1.8,2471.678,13.29,0.041,129.1
2024-03-29T01:43:03,42.805,6.029,0.026,-0.019,0.02,108.0,108.0,104.0,13.3,1505.2,353.3,-0.8,1.8,2471.688,13.29,0.032,126.2
2024-03-29T01:46:03,42.805,6.029,0.018,-0.018,-0.011,108.0,108.0,104.0,13.4,1505.2,0.0,-0.8,1.8,2471.656,13.29,0.025,135.0
2024-03-29T01:49:03,42.805,6.029,0.044,-0.044,0.022,108.0,108.0,104.0,13.3,1505.2,6.6,-0.7,1.8,2471.683,13.29,0.062,135.0
2024-03-29T01:52:03,42.805,6.029,0.026,-0.036,0.009,108.0,108.0,105.0,13.3,1505.2,355.5,-0.8,1.8,2471.668,13.29,0.044,144.2
2024-03-29T01:55:03,42.805,6.029,0.025,-0.032,0.017,108.0,107.0,104.0,13.4,1505.2,355.1,-0.8,1.8,2471.674,13.29,0.04,142.0
2024-03-29T01:58:03,42.805,6.029,0.03,-0.038,0.028,109.0,108.0,105.0,13.4,1505.2,4.2,-0.8,1.8,2471.664,13.29,0.048,141.7
2024-03-29T02:04:03,42.805,6.029,0.022,-0.016,0.02,108.0,107.0,104.0,13.4,1505.2,2.3,-0.7,1.8,2471.693,13.28,0.027,126.0
2024-03-29T02:07:03,42.805,6.029,0.027,-0.018,-0.018,107.0,107.0,105.0,13.4,1505.2,358.2,-0.8,1.8,2471.679,13.29,0.032,123.7
2024-03-29T02:10:03,42.805,6.029,0.021,-0.034,0.001,108.0,108.0,104.0,13.4,1505.2,358.7,-0.8,1.8,2471.619,13.29,0.039,148.3
2024-03-29T02:13:03,42.805,6.029,0.015,-0.036,0.018,108.0,108.0,104.0,13.4,1505.2,8.1,-0.8,1.8,2471.671,13.29,0.039,157.4
2024-03-29T02:16:03,42.805,6.029,0.036,-0.043,0.015,109.0,108.0,104.0,13.4,1505.2,2.2,-0.7,1.8,2471.676,13.29,0.056,140.1
2024-03-29T02:19:03,42.805,6.029,0.026,-0.022,0.029,109.0,108.0,105.0,13.4,1505.2,351.2,-0.8,1.8,2471.659,13.29,0.034,130.2
2024-03-29T02:22:03,42.805,6.029,0.025,-0.018,-0.002,109.0,108.0,104.0,13.4,1505.2,3.5,-0.7,1.8,2471.645,13.29,0.03,125.8
2024-03-29T02:25:03,42.805,6.029,0.044,-0.021,-0.001,108.0,108.0,105.0,13.3,1505.2,358.8,-0.7,1.8,2471.645,13.29,0.048,115.5
2024-03-29T02:28:03,42.805,6.029,0.041,-0.055,0.008,108.0,108.0,104.0,13.4,1505.2,9.1,-0.8,1.8,2471.651,13.29,0.068,143.3
2024-03-29T02:31:03,42.805,6.029,0.033,-0.044,0.01,107.0,109.0,104.0,13.3,1505.2,355.1,-0.8,1.8,2471.702,13.29,0.055,143.1
2024-03-29T02:34:03,42.805,6.029,0.015,-0.02,-0.007,108.0,107.0,105.0,13.4,1505.2,2.9,-0.8,1.8,2471.656,13.29,0.025,143.1
2024-03-29T02:37:03,42.805,6.029,0.031,-0.052,0.006,107.0,107.0,105.0,13.4,1505.2,4.8,-0.8,1.8,2471.647,13.29,0.06,149.2
2024-03-29T02:40:03,42.805,6.029,0.037,-0.039,0.024,108.0,109.0,105.0,13.3,1505.2,2.2,-0.8,1.9,2471.664,13.29,0.053,136.5
2024-03-29T02:43:03,42.805,6.029,0.01,-0.039,-0.001,107.0,108.0,105.0,13.3,1505.2,355.7,-0.7,1.8,2471.641,13.29,0.04,165.6
2024-03-29T02:46:03,42.805,6.029,0.023,-0.026,0.01,109.0,109.0,103.0,13.4,1505.2,3.6,-0.8,1.8,2471.636,13.29,0.034,138.5
2024-03-29T02:49:03,42.805,6.029,0.022,-0.039,0.015,109.0,108.0,105.0,13.4,1505.2,355.8,-0.7,1.8,2471.645,13.29,0.044,150.6
2024-03-29T02:52:03,42.805,6.029,0.025,-0.031,0.022,107.0,108.0,104.0,13.3,1505.2,1.8,-0.8,1.8,2471.629,13.29,0.039,141.1
2024-03-29T02:55:03,42.805,6.029,0.022,-0.036,0.004,108.0,107.0,104.0,13.3,1505.2,6.7,-0.7,1.8,2471.631,13.29,0.042,148.6
2024-03-29T02:58:03,42.805,6.029,0.035,-0.038,-0.009,108.0,107.0,104.0,13.3,1505.2,353.3,-0.8,1.8,2471.641,13.29,0.051,137.4
2024-03-29T03:04:03,42.805,6.029,0.028,-0.041,0.014,108.0,107.0,105.0,13.4,1505.2,358.8,-0.8,1.8,2471.682,13.28,0.049,145.7
2024-03-29T03:07:03,42.805,6.029,0.009,-0.043,0.036,107.0,108.0,104.0,13.4,1505.2,4.9,-0.7,1.8,2471.673,13.29,0.043,168.2
2024-03-29T03:10:03,42.805,6.029,0.022,-0.021,0.008,108.0,106.0,104.0,13.4,1505.2,6.6,-0.7,1.8,2471.652,13.29,0.03,133.7
2024-03-29T03:13:03,42.805,6.029,0.027,-0.035,0.009,108.0,108.0,104.0,13.3,1505.2,0.5,-0.7,1.8,2471.662,13.29,0.044,142.3
2024-03-29T03:16:03,42.805,6.029,0.034,-0.037,0.033,109.0,108.0,104.0,13.4,1505.2,351.9,-0.8,1.8,2471.63,13.29,0.05,137.4
2024-03-29T03:19:03,42.805,6.029,0.034,-0.048,0.022,107.0,108.0,105.0,13.4,1505.2,3.4,-0.8,1.8,2471.64,13.29,0.058,144.7
2024-03-29T03:22:03,42.805,6.029,0.022,-0.035,0.007,109.0,107.0,104.0,13.4,1505.2,356.3,-0.7,1.8,2471.645,13.29,0.041,147.8
2024-03-29T03:25:03,42.805,6.029,0.039,-0.021,0.033,109.0,108.0,104.0,13.4,1505.2,5.4,-0.7,1.8,2471.622,13.29,0.044,118.3
2024-03-29T03:28:03,42.805,6.029,0.024,-0.035,0.034,108.0,108.0,104.0,13.4,1505.2,2.6,-0.7,1.8,2471.648,13.29,0.042,145.6
2024-03-29T03:31:03,42.805,6.029,0.023,-0.042,0.007,107.0,107.0,106.0,13.3,1505.2,7.4,-0.7,1.8,2471.636,13.29,0.047,151.3
2024-03-29T03:34:03,42.805,6.029,0.027,-0.026,0.026,108.0,107.0,105.0,13.3,1505.2,9.1,-0.8,1.8,2471.658,13.29,0.037,133.9
2024-03-29T03:37:03,42.805,6.029,0.024,-0.025,-0.005,109.0,108.0,104.0,13.4,1505.2,2.2,-0.8,1.8,2471.646,13.29,0.034,136.2
2024-03-29T03:40:03,42.805,6.029,0.048,-0.022,0.026,107.0,108.0,105.0,13.3,1505.2,3.3,-0.8,1.8,2471.644,13.29,0.052,114.6
2024-03-29T03:43:03,42.805,6.029,0.034,-0.027,-0.01,107.0,107.0,104.0,13.4,1505.2,351.1,-0.8,1.8,2471.638,13.29,0.043,128.5
2024-03-29T03:46:03,42.805,6.029,0.043,-0.013,-0.01,108.0,108.0,104.0,13.3,1505.2,350.7,-0.8,1.8,2471.659,13.29,0.044,106.8
2024-03-29T03:49:03,42.805,6.029,0.02,-0.032,0.032,107.0,109.0,105.0,13.3,1505.2,4.7,-0.8,1.8,2471.636,13.29,0.037,148.0
2024-03-29T03:52:03,42.805,6.029,0.031,-0.037,-0.009,108.0,108.0,105.0,13.4,1505.2,3.5,-0.8,1.8,2471.618,13.29,0.048,140.0
2024-03-29T03:55:03,42.805,6.029,0.03,-0.032,0.0,109.0,106.0,104.0,13.3,1505.2,7.0,-0.8,1.8,2471.618,13.29,0.043,136.9
2024-03-29T03:58:03,42.805,6.029,0.04,-0.037,0.017,108.0,107.0,105.0,13.4,1505.2,356.1,-0.8,1.8,2471.659,13.29,0.054,132.8
2024-03-29T04:04:03,42.805,6.029,0.017,-0.048,0.022,106.0,108.0,105.0,13.3,1505.2,2.9,-0.8,1.9,2471.687,13.28,0.05,160.5
2024-03-29T04:07:03,42.805,6.029,0.017,-0.049,-0.025,107.0,108.0,105.0,13.3,1505.2,356.3,-0.8,1.8,2471.664,13.29,0.051,160.9
2024-03-29T04:10:03,42.805,6.029,0.038,-0.019,0.02,108.0,107.0,104.0,13.4,1505.2,0.5,-0.8,1.8,2471.656,13.29,0.042,116.6
2024-03-29T04:13:03,42.805,6.029,0.008,-0.037,0.036,109.0,107.0,105.0,13.3,1505.2,3.9,-0.7,1.8,2471.631,13.29,0.037,167.8
2024-03-29T04:16:03,42.805,6.029,0.019,-0.048,0.015,107.0,108.0,105.0,13.4,1505.2,6.2,-0.7,1.8,2471.624,13.29,0.051,158.4
2024-03-29T04:19:05,42.805,6.029,0.029,-0.046,0.027,108.0,107.0,105.0,13.4,1505.2,0.0,-0.8,1.8,2471.649,13.29,0.054,147.8
2024-03-29T04:22:03,42.805,6.029,0.031,-0.034,-0.034,108.0,106.0,105.0,13.4,1505.2,355.6,-0.8,1.8,2471.667,13.29,0.046,137.6
2024-03-29T04:25:03,42.805,6.029,0.018,-0.044,0.001,108.0,109.0,105.0,13.4,1505.2,1.2,-0.7,1.8,2471.603,13.29,0.047,157.8
2024-03-29T04:28:03,42.805,6.029,0.032,-0.036,0.019,108.0,107.0,105.0,13.3,1505.2,1.1,-0.8,1.8,2471.652,13.29,0.048,138.4
2024-03-29T04:31:03,42.805,6.029,0.035,-0.042,-0.012,107.0,107.0,105.0,13.4,1505.2,357.7,-0.8,1.8,2471.643,13.29,0.054,140.2
2024-03-29T04:34:03,42.805,6.029,0.019,-0.033,0.025,106.0,108.0,106.0,13.3,1505.2,356.5,-0.7,1.8,2471.667,13.29,0.038,150.1
2024-03-29T04:37:03,42.805,6.029,0.021,-0.059,0.009,108.0,108.0,105.0,13.3,1505.2,7.2,-0.7,1.8,2471.659,13.29,0.062,160.4
2024-03-29T04:40:03,42.805,6.029,0.046,-0.027,-0.008,108.0,106.0,105.0,13.4,1505.2,7.2,-0.8,1.8,2471.653,13.29,0.053,120.4
2024-03-29T04:43:03,42.805,6.029,0.029,-0.048,-0.022,108.0,108.0,104.0,13.3,1505.2,1.6,-0.8,1.8,2471.67,13.29,0.056,148.9
2024-03-29T04:46:03,42.805,6.029,0.031,-0.039,0.003,109.0,108.0,104.0,13.4,1505.2,357.0,-0.8,1.8,2471.638,13.29,0.049,141.5
2024-03-29T04:49:03,42.805,6.029,0.038,-0.035,0.0,108.0,108.0,106.0,13.4,1505.2,5.3,-0.8,1.8,2471.689,13.29,0.051,132.6
2024-03-29T04:52:03,42.805,6.029,0.049,-0.045,0.027,107.0,107.0,105.0,13.4,1505.2,357.7,-0.8,1.8,2471.668,13.29,0.066,132.6
2024-03-29T04:55:03,42.805,6.029,0.006,-0.057,0.0,109.0,108.0,104.0,13.4,1505.2,3.8,-0.7,1.8,2471.648,13.29,0.057,174.0
2024-03-29T04:58:03,42.805,6.029,0.015,-0.063,-0.029,108.0,108.0,105.0,13.4,1505.2,352.1,-0.8,1.9,2471.689,13.29,0.064,166.6
2024-03-29T05:04:03,42.805,6.029,0.049,-0.045,0.024,109.0,108.0,105.0,13.4,1505.2,357.1,-0.8,1.8,2471.676,13.28,0.066,132.6
2024-03-29T05:07:03,42.805,6.029,0.005,-0.061,0.031,108.0,107.0,105.0,13.3,1505.2,9.6,-0.7,1.8,2471.701,13.29,0.061,175.3
2024-03-29T05:10:03,42.805,6.029,0.029,-0.066,-0.013,109.0,108.0,105.0,13.3,1505.2,4.9,-0.7,1.8,2471.685,13.29,0.072,156.3
2024-03-29T05:13:03,42.805,6.029,0.019,-0.069,0.018,108.0,107.0,104.0,13.3,1505.2,1.6,-0.7,1.8,2471.672,13.29,0.071,164.6
2024-03-29T05:16:03,42.805,6.029,0.01,-0.044,0.004,108.0,108.0,105.0,13.4,1505.2,6.2,-0.8,1.9,2471.676,13.29,0.045,167.2
2024-03-29T05:19:04,42.805,6.029,0.023,-0.058,0.024,108.0,107.0,104.0,13.4,1505.2,1.2,-0.8,1.8,2471.642,13.29,0.062,158.4
2024-03-29T05:22:03,42.805,6.029,0.004,-0.034,0.038,107.0,107.0,105.0,13.4,1505.2,359.3,-0.7,1.8,2471.69,13.29,0.034,173.3
2024-03-29T05:25:03,42.805,6.029,0.018,-0.054,0.011,108.0,106.0,104.0,13.3,1505.2,1.6,-0.7,1.8,2471.661,13.29,0.056,161.6
2024-03-29T05:28:03,42.805,6.029,0.014,-0.062,-0.022,108.0,107.0,105.0,13.4,1505.2,355.7,-0.8,1.8,2471.68,13.29,0.063,167.3
2024-03-29T05:31:03,42.805,6.029,0.022,-0.067,0.016,109.0,107.0,105.0,13.3,1505.2,4.3,-0.8,1.8,2471.658,13.29,0.07,161.8
2024-03-29T05:34:03,42.805,6.029,0.015,-0.046,0.038,108.0,107.0,105.0,13.3,1505.2,9.1,-0.8,1.8,2471.688,13.29,0.048,161.9
2024-03-29T05:37:03,42.805,6.029,0.03,-0.038,0.014,108.0,108.0,105.0,13.4,1505.2,353.1,-0.7,1.8,2471.698,13.29,0.048,141.7
2024-03-29T05:40:03,42.805,6.029,0.017,-0.058,0.023,108.0,107.0,105.0,13.3,1505.2,356.3,-0.8,1.8,2471.718,13.29,0.06,163.7
2024-03-29T05:43:03,42.805,6.029,0.032,-0.046,0.019,108.0,108.0,105.0,13.3,1505.2,355.1,-0.8,1.8,2471.705,13.29,0.056,145.2
2024-03-29T05:46:03,42.805,6.029,0.031,-0.052,0.006,108.0,107.0,104.0,13.4,1505.2,3.6,-0.8,1.8,2471.705,13.29,0.06,149.2
2024-03-29T05:49:03,42.805,6.029,0.033,-0.066,-0.001,110.0,107.0,104.0,13.4,1505.2,4.8,-0.7,1.8,2471.714,13.29,0.073,153.4
2024-03-29T05:52:03,42.805,6.029,0.025,-0.059,0.008,109.0,107.0,105.0,13.4,1505.2,1.8,-0.7,1.8,2471.677,13.29,0.064,157.0
2024-03-29T05:55:03,42.805,6.029,0.021,-0.053,-0.016,109.0,108.0,103.0,13.4,1505.2,9.2,-0.8,1.8,2471.718,13.29,0.057,158.4
2024-03-29T05:58:03,42.805,6.029,0.011,-0.047,-0.016,108.0,108.0,105.0,13.3,1505.2,359.4,-0.8,1.8,2471.712,13.29,0.048,166.8
2024-03-29T06:04:03,42.805,6.029,0.03,-0.05,0.004,108.0,108.0,104.0,13.4,1505.2,3.4,-0.8,1.8,2471.747,13.28,0.058,149.0
2024-03-29T06:07:03,42.805,6.029,0.043,-0.053,0.014,108.0,107.0,106.0,13.4,1505.2,356.0,-0.8,1.8,2471.725,13.29,0.068,140.9
2024-03-29T06:10:03,42.805,6.029,0.027,-0.064,-0.005,108.0,108.0,105.0,13.3,1505.2,357.6,-0.7,1.8,2471.704,13.29,0.069,157.1
2024-03-29T06:13:03,42.805,6.029,0.008,-0.04,0.015,109.0,107.0,105.0,13.4,1505.2,356.5,-0.8,1.9,2471.7,13.29,0.04,168.7
2024-03-29T06:16:03,42.805,6.029,0.027,-0.057,0.001,109.0,108.0,105.0,13.3,1505.2,0.6,-0.8,1.8,2471.734,13.29,0.063,154.7
2024-03-29T06:19:03,42.805,6.029,0.015,-0.023,-0.01,109.0,109.0,104.0,13.4,1505.2,358.8,-0.8,1.8,2471.696,13.29,0.027,146.9
2024-03-29T06:22:03,42.805,6.029,0.019,-0.04,0.01,108.0,107.0,104.0,13.4,1505.2,0.0,-0.8,1.8,2471.735,13.29,0.044,154.6
2024-03-29T06:25:03,42.805,6.029,0.028,-0.062,0.0,108.0,105.0,104.0,13.4,1505.2,8.2,-0.8,1.8,2471.717,13.29,0.068,155.7
2024-03-29T06:28:03,42.805,6.029,0.023,-0.041,0.007,108.0,107.0,105.0,13.3,1505.2,9.0,-0.8,1.8,2471.717,13.29,0.047,150.7
2024-03-29T06:31:03,42.805,6.029,0.011,-0.053,0.021,109.0,107.0,105.0,13.4,1505.2,3.3,-0.8,1.8,2471.714,13.29,0.054,168.3
2024-03-29T06:34:03,42.805,6.029,0.028,-0.047,0.014,109.0,107.0,105.0,13.3,1505.2,6.2,-0.8,1.8,2471.722,13.29,0.054,149.2
2024-03-29T06:37:03,42.805,6.029,0.024,-0.034,-0.004,109.0,108.0,104.0,13.4,1505.2,358.9,-0.7,1.8,2471.725,13.29,0.041,144.8
2024-03-29T06:40:03,42.805,6.029,0.012,-0.048,-0.001,109.0,108.0,104.0,13.3,1505.2,3.3,-0.7,1.7,2471.717,13.29,0.049,166.0
2024-03-29T06:43:03,42.805,6.029,0.019,-0.047,-0.012,107.0,108.0,105.0,13.4,1505.2,358.9,-0.8,1.8,2471.749,13.29,0.05,158.0
2024-03-29T06:46:03,42.805,6.029,0.003,-0.029,-0.008,108.0,107.0,105.0,13.3,1505.2,4.7,-0.8,1.8,2471.74,13.29,0.029,174.1
2024-03-29T06:49:03,42.805,6.029,0.019,-0.056,0.0,108.0,108.0,105.0,13.4,1505.2,3.5,-0.7,1.8,2471.769,13.29,0.059,161.3
2024-03-29T06:52:03,42.805,6.029,0.031,-0.067,0.008,108.0,108.0,104.0,13.4,1505.2,357.1,-0.8,1.8,2471.737,13.29,0.073,155.2
2024-03-29T06:55:03,42.805,6.029,0.018,-0.03,0.016,108.0,108.0,105.0,13.4,1505.2,355.3,-0.7,1.8,2471.738,13.29,0.034,149.0
2024-03-29T06:58:03,42.805,6.029,0.027,-0.038,0.005,109.0,108.0,104.0,13.4,1505.2,355.0,-0.8,1.8,2471.723,13.29,0.046,144.6
2024-03-29T07:04:03,42.805,6.029,0.031,-0.047,-0.012,109.0,108.0,104.0,13.4,1505.2,0.6,-0.8,1.8,2471.792,13.28,0.056,146.6
2024-03-29T07:07:03,42.805,6.029,0.038,-0.054,-0.016,109.0,108.0,105.0,13.3,1505.2,355.2,-0.8,1.8,2471.736,13.29,0.066,144.9
2024-03-29T07:10:03,42.805,6.029,0.022,-0.071,0.03,108.0,109.0,105.0,13.4,1505.2,1.0,-0.7,1.8,2471.737,13.29,0.074,162.8
2024-03-29T07:13:03,42.805,6.029,0.037,-0.065,0.01,108.0,108.0,106.0,13.4,1505.2,351.0,-0.8,1.8,2471.743,13.29,0.074,150.3
2024-03-29T07:16:03,42.805,6.029,0.03,-0.055,-0.015,108.0,108.0,106.0,13.3,1505.2,3.5,-0.7,1.8,2471.792,13.29,0.062,151.4
2024-03-29T07:19:05,42.805,6.029,0.022,-0.058,0.024,110.0,109.0,105.0,13.3,1505.2,7.3,-0.8,1.8,2471.743,13.29,0.062,159.2
2024-03-29T07:22:03,42.805,6.029,0.017,-0.05,0.013,109.0,109.0,105.0,13.4,1505.2,8.0,-0.7,1.8,2471.785,13.29,0.052,161.2
2024-03-29T07:25:03,42.805,6.029,0.042,-0.049,-0.003,108.0,108.0,105.0,13.3,1505.2,351.9,-0.7,1.8,2471.788,13.29,0.064,139.4
2024-03-29T07:28:03,42.805,6.029,0.037,-0.032,0.056,108.0,108.0,105.0,13.3,1505.2,352.0,-0.8,1.8,2471.755,13.29,0.048,130.9
2024-03-29T07:31:03,42.805,6.029,0.015,-0.057,-0.02,109.0,108.0,105.0,13.3,1505.2,3.6,-0.8,1.8,2471.801,13.29,0.058,165.3
2024-03-29T07:34:03,42.805,6.029,0.034,-0.039,0.024,109.0,108.0,105.0,13.4,1505.2,355.7,-0.8,1.8,2471.758,13.29,0.051,138.9
2024-03-29T07:37:03,42.805,6.029,0.024,-0.057,0.039,108.0,107.0,106.0,13.4,1505.2,7.2,-0.8,1.8,2471.809,13.29,0.061,157.2
2024-03-29T07:40:03,42.805,6.029,0.012,-0.056,-0.01,108.0,109.0,105.0,13.4,1505.2,4.6,-0.8,1.8,2471.762,13.29,0.057,167.9
2024-03-29T07:43:03,42.805,6.029,0.019,-0.041,-0.004,109.0,108.0,104.0,13.3,1505.2,357.5,-0.8,1.8,2471.808,13.29,0.045,155.1
2024-03-29T07:46:03,42.805,6.029,0.031,-0.056,0.007,108.0,107.0,105.0,13.3,1505.2,358.3,-0.8,1.8,2471.784,13.29,0.064,151.0
2024-03-29T07:49:03,42.805,6.029,0.027,-0.049,0.014,108.0,108.0,104.0,13.4,1505.2,353.8,-0.7,1.8,2471.745,13.29,0.055,151.1
2024-03-29T07:52:03,42.805,6.029,0.037,-0.05,0.007,107.0,107.0,104.0,13.3,1505.2,355.6,-0.8,1.8,2471.775,13.29,0.062,143.5
2024-03-29T07:55:03,42.805,6.029,0.037,-0.062,-0.003,107.0,107.0,105.0,13.4,1505.2,4.1,-0.7,1.8,2471.781,13.29,0.072,149.2
2024-03-29T07:58:03,42.805,6.029,0.042,-0.041,-0.019,108.0,107.0,105.0,13.4,1505.2,358.2,-0.7,1.8,2471.809,13.29,0.058,134.3
2024-03-29T08:04:03,42.805,6.029,0.046,-0.067,0.021,108.0,109.0,105.0,13.3,1505.2,357.2,-0.7,1.8,2471.821,13.28,0.081,145.5
2024-03-29T08:07:03,42.805,6.029,0.008,-0.062,0.023,110.0,110.0,107.0,13.3,1505.2,359.3,-0.7,1.8,2471.775,13.29,0.062,172.7
2024-03-29T08:10:03,42.805,6.029,0.045,-0.071,-0.01,109.0,109.0,105.0,13.4,1505.2,354.6,-0.7,1.8,2471.788,13.29,0.084,147.6
2024-03-29T08:13:03,42.805,6.029,0.014,-0.046,0.0,109.0,108.0,105.0,13.3,1505.2,5.6,-0.7,1.8,2471.813,13.29,0.048,163.1
2024-03-29T08:16:03,42.805,6.029,0.042,-0.037,0.03,111.0,108.0,106.0,13.3,1505.2,358.9,-0.8,1.8,2471.804,13.29,0.055,131.4
2024-03-29T08:19:06,42.805,6.029,0.028,-0.059,-0.003,110.0,106.0,105.0,13.4,1505.2,3.6,-0.8,1.8,2471.796,13.29,0.065,154.6
2024-03-29T08:22:03,42.805,6.029,0.02,-0.053,-0.009,109.0,108.0,105.0,13.4,1505.2,3.5,-0.7,1.8,2471.819,13.29,0.056,159.3
2024-03-29T08:25:03,42.805,6.029,0.032,-0.067,0.023,109.0,108.0,104.0,13.3,1505.2,357.7,-0.8,1.8,2471.802,13.29,0.074,154.5
2024-03-29T08:28:03,42.805,6.029,0.0,-0.05,0.008,109.0,108.0,105.0,13.3,1505.2,4.7,-0.8,1.8,2471.795,13.29,0.05,180.0
2024-03-29T08:31:03,42.805,6.029,-0.001,-0.052,0.001,108.0,108.0,105.0,13.4,1505.2,357.0,-0.8,1.8,2471.775,13.29,0.052,181.1
2024-03-29T08:34:03,42.805,6.029,0.023,-0.051,0.019,107.0,107.0,106.0,13.4,1505.2,357.8,-0.8,1.8,2471.79,13.29,0.055,155.7
2024-03-29T08:37:03,42.805,6.029,0.028,-0.043,0.002,109.0,107.0,105.0,13.3,1505.2,352.6,-0.8,1.8,2471.839,13.29,0.051,146.9
2024-03-29T08:40:03,42.805,6.029,0.023,-0.071,0.055,108.0,108.0,104.0,13.4,1505.2,0.6,-0.7,1.8,2471.831,13.29,0.074,162.1
2024-03-29T08:43:03,42.805,6.029,0.039,-0.061,0.015,109.0,107.0,105.0,13.3,1505.2,355.7,-0.7,1.8,2471.811,13.29,0.072,147.4
2024-03-29T08:46:03,42.805,6.029,0.012,-0.077,0.001,109.0,107.0,106.0,13.4,1505.2,6.1,-0.8,1.8,2471.829,13.29,0.077,171.1
2024-03-29T08:49:03,42.805,6.029,0.044,-0.044,0.024,108.0,108.0,106.0,13.4,1505.2,350.7,-0.8,1.8,2471.824,13.29,0.062,135.0
2024-03-29T08:52:03,42.805,6.029,0.011,-0.031,-0.001,108.0,108.0,105.0,13.4,1505.2,1.2,-0.7,1.8,2471.799,13.29,0.032,160.5
2024-03-29T08:55:03,42.805,6.029,0.023,-0.058,-0.028,109.0,108.0,105.0,13.3,1505.2,3.1,-0.7,1.8,2471.82,13.29,0.062,158.4
2024-03-29T08:58:03,42.805,6.029,0.052,-0.076,0.015,109.0,108.0,105.0,13.3,1505.2,356.6,-0.7,1.8,2471.826,13.29,0.092,145.6
2024-03-29T09:04:03,42.805,6.029,0.015,-0.049,0.01,109.0,108.0,105.0,13.3,1505.2,356.1,-0.7,1.8,2471.851,13.28,0.051,163.0
2024-03-29T09:07:03,42.805,6.029,0.04,-0.038,0.042,109.0,108.0,105.0,13.4,1505.2,351.5,-0.7,1.8,2471.824,13.29,0.055,133.5
2024-03-29T09:10:03,42.805,6.029,0.025,-0.065,0.012,109.0,107.0,105.0,13.3,1505.2,4.1,-0.8,1.8,2471.841,13.29,0.069,159.0
2024-03-29T09:13:03,42.805,6.029,0.023,-0.047,0.031,109.0,109.0,106.0,13.4,1505.2,0.6,-0.8,1.8,2471.819,13.29,0.052,153.9
2024-03-29T09:16:03,42.805,6.029,0.034,-0.073,0.016,108.0,108.0,106.0,13.4,1505.2,0.5,-0.8,1.8,2471.829,13.29,0.08,155.0
2024-03-29T09:19:03,42.805,6.029,0.028,-0.041,-0.002,107.0,108.0,105.0,13.3,1505.2,358.1,-0.8,1.8,2471.83,13.29,0.049,145.7
2024-03-29T09:22:03,42.805,6.029,0.025,-0.049,0.006,109.0,108.0,105.0,13.3,1505.2,6.7,-0.8,1.8,2471.797,13.29,0.055,153.0
2024-03-29T09:25:03,42.805,6.029,0.023,-0.066,0.028,109.0,108.0,106.0,13.4,1505.2,7.6,-0.7,1.8,2471.812,13.29,0.069,160.8
2024-03-29T09:28:03,42.805,6.029,0.016,-0.035,0.008,109.0,108.0,105.0,13.4,1505.2,8.2,-0.8,1.8,2471.805,13.29,0.038,155.4
2024-03-29T09:31:03,42.805,6.029,-0.003,-0.076,0.007,108.0,108.0,106.0,13.4,1505.2,1.1,-0.8,1.8,2471.808,13.29,0.076,182.3
2024-03-29T09:34:03,42.805,6.029,0.017,-0.043,0.009,108.0,108.0,105.0,13.3,1505.2,3.8,-0.8,1.8,2471.813,13.29,0.046,158.4
2024-03-29T09:37:03,42.805,6.029,0.018,-0.072,-0.006,109.0,109.0,105.0,13.4,1505.2,351.5,-0.8,1.8,2471.786,13.29,0.074,166.0
2024-03-29T09:40:03,42.805,6.029,0.019,-0.058,0.0,108.0,107.0,105.0,13.3,1505.2,356.8,-0.8,1.8,2471.82,13.29,0.061,161.9
2024-03-29T09:43:03,42.805,6.029,0.02,-0.072,-0.018,109.0,109.0,105.0,13.3,1505.2,3.6,-0.7,1.8,2471.771,13.29,0.074,164.5
2024-03-29T09:46:03,42.805,6.029,0.04,-0.05,0.015,108.0,109.0,105.0,13.3,1505.2,0.5,-0.7,1.8,2471.821,13.29,0.064,141.3
2024-03-29T09:49:03,42.805,6.029,0.043,-0.063,0.014,109.0,108.0,105.0,13.3,1505.2,3.9,-0.7,1.8,2471.802,13.29,0.076,145.7
2024-03-29T09:52:03,42.805,6.029,0.05,-0.056,0.003,109.0,109.0,105.0,13.3,1505.2,351.5,-0.8,1.8,2471.794,13.29,0.075,138.2
2024-03-29T09:55:03,42.805,6.029,0.02,-0.074,0.016,107.0,107.0,104.0,13.3,1505.2,0.0,-0.8,1.8,2471.779,13.29,0.076,164.9
2024-03-29T09:58:03,42.805,6.029,0.022,-0.05,-0.029,108.0,106.0,105.0,13.4,1505.2,356.3,-0.7,1.8,2471.801,13.29,0.054,156.3
2024-03-29T10:04:03,42.805,6.029,0.041,-0.068,0.005,107.0,107.0,104.0,13.4,1505.2,353.7,-0.8,1.8,2471.807,13.28,0.079,148.9